Location: Unspecified
(0.0000°N, 0.0000°E)
Time: 19:19:58
(UTC+00:00)

Vanguard 1 Rocket - Pass Details

Date: 08 December 2017
Orbit: 656 x 4222 km, 34.3° (Epoch: 15 January)

Event Time Altitude Azimuth Distance (km) Brightness Sun altitude
Rises 21:26:47 0° 317° (NW) 6,865 11.9 -47.9°
Reaches altitude 10° 21:32:51 10° 331° (NNW) 6,384 11.6 -49.2°
Enters shadow 21:38:41 18° 346° (NNW) 6,120 11.3 -50.3°
